Regional Weather Roundup
Issued by NWS

Home | Current Version | Previous Version | Graphics & Text | Print | Product List | Glossary On
Versions: 1 2 3 4 5 6 7 8 9 10 11 12 13 14 15 16 17 18 19 20 21 22 23 24 25 26 27 28 29 30 31 32 33 34 35 36 37 38 39 40 41 42 43 44 45 46 47 48 49 50
583
ASUS43 KDTX 011610
RWRMI
MICHIGAN HOURLY REGIONAL WEATHER ROUNDUP
NATIONAL WEATHER SERVICE DETROIT/PONTIAC MI
1100 AM EST WED MAR 01 2017

NOTE: "FAIR" INDICATES FEW OR NO CLOUDS BELOW 12,000 FEET WITH NO
SIGNIFICANT WEATHER AND/OR OBSTRUCTION TO VISIBILITY.

MIZ047>049-052>055-059>063-066>070-074>076-081>083-011700-
SOUTHEAST LOWER MICHIGAN

CITY           SKY/WX    TMP DP  RH WIND       PRES   REMARKS
ADRIAN         CLOUDY    54  52  93 W16G25    29.40
ALMA           CLOUDY    43  42  97 E8        29.35R FOG
ANN ARBOR      CLOUDY    53  51  93 S13G23    29.37F
BAD AXE        LGT RAIN  38  38 100 NE6       29.36R WCI  33
CARO           LGT RAIN  40  40  98 CALM      29.34S
DETROIT CITY   CLOUDY    53  50  89 SW10      29.37F
DETROIT        CLOUDY    54  51  90 SW16G24   29.38F
FLINT          CLOUDY    51  48  89 SW8       29.34F
GROSSE ILE     CLOUDY    54  50  87 SW7       29.38F
HILLSDALE      CLOUDY    52  50  93 SW17G25   29.39R
HOWELL         LGT RAIN  51  49  90 SW6       29.35F

CITY           SKY/WX    TMP DP  RH WIND       PRES   REMARKS
JACKSON        CLOUDY    53  50  89 SW21G28   29.36S FOG
LAMBERTVILLE   CLOUDY    58  51  78 S20G25    29.40R
LANSING        CLOUDY    52  50  93 SW13      29.35S FOG
LAPEER         CLOUDY    51  49  93 SW7       29.34S
MASON          CLOUDY    52  51  96 SW9       29.36S FOG
MONROE         CLOUDY    57  53  85 SW14G21   29.37S
MT. CLEMENS    CLOUDY    53  53 100 SW12      29.34S
PONTIAC        CLOUDY    51  48  89 SW10      29.34F
PORT HOPE        N/A     37  36  96 N5        29.34S WCI  33
PORT HURON     CLOUDY    50  48  93 S10       29.35S
TRI CITIES     LGT RAIN  38  38 100 NE14      29.36F FOG     WCI  30
MIDLAND        RAIN      39  37  93 E10       29.36S WCI  32
TROY           CLOUDY    53  49  87 SW12      29.37F
SAGINAW HB     MIX PCPN  39  36  87 N9        29.35F WCI  33
$$
MIZ043>046-050>051-056>058-064>065-071>073-077>080-011700-
SOUTHWEST LOWER MICHIGAN

CITY           SKY/WX    TMP DP  RH WIND       PRES   REMARKS
BATTLE CREEK   CLOUDY    52  51  97 SW17      29.38R FOG
BENTON HARBOR  CLOUDY    40  38  93 W14       29.46R FOG     WCI  32
BIG RAPIDS     CLOUDY    42  41  97 NE5       29.31F FOG
COLDWATER      CLOUDY    54  51  90 SW20G25   29.40R
FREMONT        CLOUDY    43  43 100 NW7       29.33S FOG
HOLLAND        CLOUDY    39  38  96 W14       29.40R FOG     WCI  31
GRAND RAPIDS   CLOUDY    48  46  93 SW14      29.34S
IONIA          CLOUDY    50  49  97 SW15      29.33F
KALAMAZOO      CLOUDY    51  47  86 SW18      29.39R
LUDINGTON      LGT SNOW  33  32  98 N13G23    29.39R WCI  24
MARSHALL       CLOUDY    53  52  97 SW12G23   29.37S
MOUNT PLEASANT RAIN      42  42  99 E3        29.33S
MUSKEGON       FOG       41  41 100 SW7       29.36R VSB 1/2
SOUTH HAVEN    CLOUDY    38  38 100 W10G17    29.44R FOG     WCI  31
$$
MIZ016>042-011700-
NORTHERN LOWER MICHIGAN

CITY           SKY/WX    TMP DP  RH WIND       PRES   REMARKS
ALPENA         MIX PCPN  29  28  96 N21G29    29.43R FOG     WCI  16
BEAVER ISLAND  CLOUDY    21  20  96 N14G21    29.55R WCI   8
BELLAIRE       LGT SNOW  30  28  94 N9G18     29.46R VSB 1   WCI  21
CADILLAC       LGT SNOW  35  33  96 N8        29.35R WCI  28
CHARLEVOIX     HVY SNOW  25  25 100 N18G30    29.52R VSB<1/4 WCI  11
FRANKFORT      LGT SNOW  30  28  93 N13G28    29.44S WCI  20
GAYLORD        SNOW      28  26  92 NE12G18   29.41R VSB 1/4 WCI  18
GRAYLING       LGT SNOW  33  32  98 NE16      29.39S WCI  22
HARBOR SPRINGS SNOW      24  23  93 N13       29.48F VSB 1/4 WCI  13
HOUGHTON LAKE  LGT RAIN  36  34  92 NE9       29.36S FOG     WCI  29
MANISTEE       LGT RAIN  32  30  92 N16       29.40F FOG     WCI  21
OSCODA         MIX PCPN  35  34  95 N15G21    29.37R WCI  25
PELLSTON       HVY SNOW  23  19  85 N15       29.52R VSB<1/4 WCI  10
ROGERS CITY    SNOW      25  23  93 N13G23    29.47S VSB 1/2 WCI  14
TRAVERSE CITY  LGT SNOW  31  29  92 N14G22    29.43R VSB 1   WCI  21
$$
MIZ007>008-015-011700-
EASTERN UPPER MICHIGAN

CITY           SKY/WX    TMP DP  RH WIND       PRES   REMARKS
KINROSS        HVY SNOW  18  15  88 N15G28    29.55S VSB 1/4 WCI   4
MACKINAC ISLAN HVY SNOW  20  20 100 NE17G33   29.52R VSB<1/4 WCI   5
NEWBERRY       SNOW      19  18  95 N16G24    29.58S VSB 1/2 WCI   4
S. S. MARIE    SNOW      19  14  81 NE12      29.57S VSB 1/2 WCI   7
MUNISING         N/A     22  20  92 N28G35    29.65S WCI   4
$$
MIZ004>006-011>014-085-011700-
CENTRAL UPPER MICHIGAN

CITY           SKY/WX    TMP DP  RH WIND       PRES   REMARKS
MANISTIQUE     SNOW      22  21  98 N23G32    29.56F VSB 1/2 WCI   5
ESCANABA       SNOW      24  21  88 N12G23    29.58S VSB 1/2 WCI  13
MENOMINEE      LGT SNOW  25  21  86 N17G29    29.57F VSB 1   WCI  11
SAWYER-GWINN   SNOW      19  18  93 N17G29    29.63F VSB 1/2 WCI   4
$$
MIZ001>003-009>011-084-011700-
WESTERN UPPER MICHIGAN

CITY           SKY/WX    TMP DP  RH WIND       PRES   REMARKS
IRON MOUNTAIN  LGT SNOW  24  17  74 N21G30    29.61R WCI   9
HOUGHTON       CLOUDY    20  12  71 NE18G26   29.77S WCI   5
COPPER HARBOR    N/A     22  17  81 E23G31    29.82R WCI   6
IRONWOOD       FLURRIES  21  17  84 NE10G21   29.79S WCI  10
$$

ABBREVIATIONS USED IN REMARKS
   TC - TEMPERATURE IN CELSIUS
  WCI - WIND CHILL INDEX
   HX - HEAT INDEX
  VSB - VISIBILITY





USA.gov is the U.S. government's official web portal to all federal, state and local government web resources and services.